#timestamp,LO_Frequency,Hit 
1616778015.8,286047002.6,N
1616778035.6,286047001.9,N
1616778055.5,286047000.5,N
1616778075.3,286047001.7,N
1616778095.1,286046999.9,N
1616778115.9,286047000.1,N
1616778135.7,286046999.8,N
1616778155.5,286047001.9,N
1616778175.4,286047002.2,N
1616778195.2,286046999.8,N
1616778215.0,286047002.5,N
1616778215.9,286047002.5,N
1616778235.8,286047002.7,N
1616778255.6,286047002.1,N
1616778275.4,286047002.2,N
1616778295.3,286047000.2,N
1616778315.1,286047002.1,N
1616778316.0,286047002.1,N
1616778335.8,286047002.3,N
1616778355.7,286047002.1,N
1616778375.5,286047000.1,N
1616778395.3,286047002.3,N
1616778415.2,286047002.6,N
1616778435.9,286047001.6,N
1616778455.7,286047002.1,N
1616778475.6,286047002.1,N
1616778495.4,286047002.6,N
1616778515.2,286047002.4,N
1616778535.0,286047002.2,N
1616778535.9,286047002.2,N
1616778555.8,286047002.5,N
1616778575.6,286047002.6,N
1616778595.4,286047002.7,N
1616778615.3,286047001.5,N
1616778635.1,286047002.1,N
1616778655.8,286047001.9,N
1616778675.7,286047004.0,P
1616778695.5,286047002.5,N
1616778715.4,286047002.2,N
1616778735.2,286047002.3,N
1616778755.0,286047002.0,N
1616778755.9,286047002.0,N
1616778775.8,286047001.3,N
1616778795.6,286047004.0,P
1616778815.4,286047000.8,N
1616778835.3,286046999.9,N
1616778855.1,286047000.5,N
1616778856.0,286047000.5,N
1616778875.8,286047002.8,N
1616778895.7,286047001.5,N
1616778915.5,286047001.4,N
1616778935.3,286047002.3,N
1616778955.2,286047004.3,P
1616778975.0,286047002.6,N
1616778975.9,286047002.6,N
1616778995.7,286046999.9,N
1616779015.6,286046999.8,N
1616779035.4,286047002.3,N
1616779055.2,286047002.7,N
1616779075.1,286047002.3,N
1616779076.0,286047002.3,N
1616779095.8,286047002.6,N
1616779115.6,286047002.6,N
1616779135.5,286047001.4,N
1616779155.3,286047002.8,N
1616779175.1,286047001.7,N
1616779195.9,286047001.3,N
1616779215.7,286047004.4,P
1616779235.5,286047001.1,N
1616779255.4,286047002.7,N
1616779275.2,286047000.0,N
1616779295.0,286047002.6,N
1616779295.9,286047002.6,N
1616779315.8,286047002.2,N
1616779335.6,286047002.0,N
1616779355.4,286047000.2,N
1616779375.3,286047001.2,N
1616779395.1,286047001.2,N
1616779415.8,286046998.4,N
1616779435.7,286047000.9,N
1616779455.5,286046999.1,N
1616779475.3,286047000.8,N
1616779495.2,286046998.7,N
1616779515.9,286046998.4,N
1616779535.7,286046998.3,N
1616779555.6,286046998.9,N
1616779575.4,286046998.6,N
1616779595.2,286046998.1,N
1616779615.1,286046998.2,N
1616779616.0,286046998.2,N
1616779635.8,286046999.0,N
1616779655.6,286046999.5,N
1616779675.5,286046999.1,N
1616779695.3,286046999.5,N
1616779715.1,286046996.9,N
1616779735.9,286046997.3,N
1616779755.7,286046996.8,N
1616779775.5,286046997.0,N
1616779795.4,286046997.0,N
1616779815.2,286046996.6,N
1616779835.0,286046996.6,N
1616779835.9,286046996.6,N
1616779855.8,286046994.9,N
1616779875.6,286046999.6,N
1616779895.4,286046996.7,N
1616779915.3,286046995.0,P
1616779935.1,286046996.5,N
1616779955.8,286046999.0,N
1616779975.7,286046996.5,N
1616779995.5,286046998.8,N
1616780015.3,286046999.1,N
1616780035.2,286046996.9,N
1616780055.9,286046999.0,N
1616780075.7,286046997.0,N
1616780095.6,286046999.2,N
1616780115.4,286046997.3,N
1616780135.2,286046996.6,N
1616780155.1,286046999.1,N
1616780156.0,286046999.1,N
1616780175.8,286046999.1,N
1616780195.6,286046998.5,N
1616780215.5,286046999.5,N
1616780235.3,286046998.6,N
1616780255.1,286046999.4,N
1616780275.9,286046998.6,N
1616780295.7,286046999.6,N
1616780315.5,286046999.3,N
1616780335.4,286046998.6,N
1616780355.2,286046996.7,N
1616780375.0,286046999.6,N
1616780375.9,286046999.6,N
1616780395.8,286046999.4,N
1616780415.6,286046997.7,N
1616780435.4,286046999.0,N
1616780455.3,286046999.3,N
1616780475.1,286046999.6,N
1616780476.0,286046999.6,N
1616780495.8,286046999.2,N
1616780515.7,286046999.1,N
1616780535.5,286046999.3,N
1616780555.3,286046999.0,N
1616780575.1,286046999.0,N
1616780595.9,286046999.6,N
1616780615.7,286046996.5,P
1616780635.6,286046998.5,N
1616780655.4,286046998.2,N
1616780675.2,286046999.2,N
1616780695.1,286046999.3,N
1616780696.0,286046999.3,N
1616780715.8,286046999.5,N
1616780735.6,286046999.5,N
1616780755.5,286046998.3,N
1616780775.3,286046999.4,N
1616780795.1,286046998.7,N
1616780815.9,286046999.2,N
1616780835.7,286046998.8,N
1616780855.5,286046999.0,N
1616780875.3,286046998.3,N
1616780895.2,286046999.3,N
1616780915.0,286046999.4,N
1616780915.9,286046999.4,N
1616780935.8,286046999.2,N
1616780955.6,286046998.4,N
1616780975.4,286046999.4,N
1616780995.2,286046999.2,N
1616781015.1,286046998.9,N
1616781016.0,286046998.9,N
1616781035.8,286046999.4,N
1616781055.7,286046996.6,P
1616781075.5,286047000.9,N
1616781095.3,286047000.9,N
1616781115.2,286047001.1,N
1616781135.9,286047000.7,N
1616781155.7,286047000.4,N
1616781175.6,286047001.0,N
1616781195.4,286047000.3,N
1616781215.2,286046999.9,N
1616781235.0,286047000.7,N
1616781235.9,286047000.7,N
1616781255.8,286046998.2,N
1616781275.6,286047002.7,N
1616781295.4,286047001.1,N
1616781315.3,286047000.4,N
1616781335.1,286046999.7,N
1616781355.8,286046999.7,N
1616781375.7,286047000.3,N
1616781395.3,286047000.2,N
1616781415.1,286047002.7,N
1616781416.0,286047002.7,N
1616781435.8,286047002.7,N
1616781455.7,286046999.8,N
1616781475.5,286047002.3,N
1616781495.3,286047002.2,N
1616781515.2,286047002.2,N
1616781535.9,286047000.1,N
1616781555.7,286047002.7,N
1616781575.6,286047001.6,N
1616781595.4,286047002.6,N
